CCA131 ZBAD-RKSI

Flight info

Callsign CCA131
Flight time 1h 25m
Altitude 26600
Route MUGLO4K MUGLO W34 VAPGU W100 ORAVA W201 UNSEK A326 DONVO G597 AGAVO/N0408F266 Y644 REBIT REBIT1Y
Aircraft B738/M-SDE2E3FGHIRWXY/LB1

Departure

Time 2026-04-17 10:37
Airport Beijing Daxing International Airport (ZBAD)

Arrival

Time 2026-04-17 12:02
Airport Incheon International Airport (RKSI)
Time Latitude Longitude Altitude Speed Heading
2026-04-17 09:37 39.50440 116.41001 84 ft 0 kts 72°
2026-04-17 10:18 39.50439 116.40998 88 ft 2 kts 72°
2026-04-17 10:18 39.50431 116.40966 88 ft 4 kts 69°
2026-04-17 10:18 39.50420 116.40934 86 ft 4 kts 61°
2026-04-17 10:19 39.50405 116.40907 87 ft 4 kts 34°
2026-04-17 10:19 39.50389 116.40899 87 ft 0 kts 353°
2026-04-17 10:24 39.50393 116.40899 88 ft 2 kts 353°
2026-04-17 10:24 39.50406 116.40881 87 ft 4 kts 282°
2026-04-17 10:25 39.50397 116.40829 88 ft 8 kts 246°
2026-04-17 10:25 39.50344 116.40799 86 ft 10 kts 174°
2026-04-17 10:25 39.50267 116.40811 85 ft 11 kts 173°
2026-04-17 10:25 39.50192 116.40831 87 ft 11 kts 143°
2026-04-17 10:26 39.50172 116.40918 88 ft 11 kts 83°
2026-04-17 10:26 39.50181 116.41013 84 ft 10 kts 83°
2026-04-17 10:26 39.50190 116.41105 87 ft 10 kts 82°
2026-04-17 10:26 39.50200 116.41194 85 ft 10 kts 82°
2026-04-17 10:27 39.50207 116.41281 84 ft 10 kts 84°
2026-04-17 10:27 39.50214 116.41366 87 ft 9 kts 84°
2026-04-17 10:27 39.50221 116.41450 84 ft 10 kts 83°
2026-04-17 10:27 39.50232 116.41553 86 ft 13 kts 83°
2026-04-17 10:28 39.50244 116.41686 88 ft 16 kts 83°
2026-04-17 10:28 39.50258 116.41839 85 ft 18 kts 83°
2026-04-17 10:28 39.50274 116.41994 87 ft 17 kts 82°
2026-04-17 10:28 39.50289 116.42145 88 ft 17 kts 83°
2026-04-17 10:29 39.50309 116.42276 86 ft 13 kts 58°
2026-04-17 10:29 39.50389 116.42292 86 ft 12 kts 353°
2026-04-17 10:29 39.50472 116.42279 88 ft 12 kts 353°
2026-04-17 10:29 39.50556 116.42265 86 ft 13 kts 353°
2026-04-17 10:30 39.50662 116.42249 86 ft 17 kts 354°
2026-04-17 10:30 39.50789 116.42230 87 ft 19 kts 353°
2026-04-17 10:30 39.50917 116.42209 84 ft 18 kts 353°
2026-04-17 10:30 39.51040 116.42190 85 ft 17 kts 353°
2026-04-17 10:31 39.51157 116.42171 85 ft 17 kts 353°
2026-04-17 10:31 39.51270 116.42154 86 ft 15 kts 353°
2026-04-17 10:31 39.51326 116.42201 84 ft 9 kts 81°
2026-04-17 10:31 39.51333 116.42280 84 ft 9 kts 83°
2026-04-17 10:32 39.51343 116.42376 87 ft 12 kts 83°
2026-04-17 10:32 39.51354 116.42502 87 ft 16 kts 83°
2026-04-17 10:32 39.51369 116.42656 87 ft 19 kts 82°
2026-04-17 10:32 39.51386 116.42827 84 ft 19 kts 82°
2026-04-17 10:33 39.51401 116.42992 86 ft 16 kts 84°
2026-04-17 10:33 39.51438 116.43079 87 ft 11 kts 21°
2026-04-17 10:33 39.51511 116.43100 88 ft 11 kts 13°
2026-04-17 10:33 39.51581 116.43121 92 ft 10 kts 13°
2026-04-17 10:34 39.51644 116.43162 96 ft 10 kts 40°
2026-04-17 10:34 39.51657 116.43204 96 ft 0 kts 91°
2026-04-17 10:34 39.51655 116.43214 100 ft 2 kts 103°
2026-04-17 10:35 39.51653 116.43223 100 ft 5 kts 103°
2026-04-17 10:36 39.51620 116.43408 97 ft 51 kts 103°
2026-04-17 10:36 39.51485 116.44159 94 ft 118 kts 103°
2026-04-17 10:36 39.51249 116.45424 97 ft 169 kts 102°
2026-04-17 10:36 39.50963 116.46981 587 ft 174 kts 105°
2026-04-17 10:37 39.50699 116.48515 1320 ft 177 kts 106°
2026-04-17 10:37 39.50422 116.50083 1960 ft 179 kts 108°
2026-04-17 10:37 39.50140 116.51635 2731 ft 177 kts 108°
2026-04-17 10:37 39.49856 116.53189 3352 ft 183 kts 108°
2026-04-17 10:38 39.49540 116.54920 3650 ft 212 kts 107°
2026-04-17 10:38 39.49184 116.56885 3873 ft 236 kts 106°
2026-04-17 10:38 39.48796 116.59055 4103 ft 259 kts 105°
2026-04-17 10:38 39.48374 116.61423 4522 ft 276 kts 105°
2026-04-17 10:39 39.47941 116.63868 5210 ft 281 kts 104°
2026-04-17 10:39 39.47550 116.66382 5911 ft 287 kts 102°
2026-04-17 10:39 39.47188 116.68910 6609 ft 292 kts 101°
2026-04-17 10:39 39.46810 116.71520 7309 ft 297 kts 101°
2026-04-17 10:40 39.46422 116.74164 8081 ft 301 kts 101°
2026-04-17 10:40 39.45660 116.76706 8776 ft 307 kts 127°
2026-04-17 10:40 39.44088 116.78548 9554 ft 307 kts 154°
2026-04-17 10:40 39.42125 116.79647 10278 ft 310 kts 162°
2026-04-17 10:41 39.40027 116.80661 10534 ft 334 kts 162°
2026-04-17 10:41 39.37772 116.81761 10779 ft 357 kts 162°
2026-04-17 10:41 39.35427 116.82933 11358 ft 365 kts 161°
2026-04-17 10:41 39.33077 116.84122 12128 ft 368 kts 161°
2026-04-17 10:42 39.30676 116.85340 12927 ft 372 kts 161°
2026-04-17 10:42 39.28252 116.86566 13730 ft 376 kts 162°
2026-04-17 10:42 39.25800 116.87806 14467 ft 380 kts 161°
2026-04-17 10:42 39.24157 116.88638 14973 ft 383 kts 161°
2026-04-17 10:43 39.21664 116.89897 15751 ft 386 kts 161°
2026-04-17 10:43 39.19146 116.91167 16500 ft 390 kts 160°
2026-04-17 10:43 39.16621 116.92512 17216 ft 396 kts 153°
2026-04-17 10:43 39.14446 116.94713 17909 ft 402 kts 129°
2026-04-17 10:44 39.12999 116.97795 18657 ft 402 kts 110°
2026-04-17 10:44 39.12374 117.01284 19262 ft 401 kts 91°
2026-04-17 10:44 39.12206 117.04882 19880 ft 405 kts 89°
2026-04-17 10:44 39.12075 117.08521 20481 ft 409 kts 89°
2026-04-17 10:45 39.11937 117.12149 21095 ft 413 kts 89°
2026-04-17 10:45 39.11772 117.15863 21718 ft 416 kts 89°
2026-04-17 10:45 39.11588 117.19612 22285 ft 421 kts 89°
2026-04-17 10:45 39.11395 117.23402 22810 ft 427 kts 89°
2026-04-17 10:46 39.11196 117.27227 23410 ft 430 kts 88°
2026-04-17 10:46 39.10994 117.31086 23918 ft 433 kts 88°
2026-04-17 10:46 39.10790 117.34971 24377 ft 436 kts 89°
2026-04-17 10:46 39.10586 117.38839 24813 ft 440 kts 89°
2026-04-17 10:47 39.10377 117.42791 25241 ft 444 kts 89°
2026-04-17 10:47 39.10164 117.46767 25729 ft 446 kts 89°
2026-04-17 10:47 39.09949 117.50767 26289 ft 447 kts 89°
2026-04-17 10:47 39.09731 117.54785 26510 ft 450 kts 90°
2026-04-17 10:48 39.09514 117.58762 26517 ft 447 kts 90°
2026-04-17 10:48 39.09295 117.62752 26514 ft 445 kts 90°
2026-04-17 10:48 39.09075 117.66760 26533 ft 445 kts 90°
2026-04-17 10:48 39.08858 117.70703 26530 ft 446 kts 90°
2026-04-17 10:49 39.08636 117.74697 26535 ft 447 kts 90°
2026-04-17 10:49 39.08412 117.78696 26530 ft 447 kts 90°
2026-04-17 10:49 39.08186 117.82700 26528 ft 447 kts 90°
2026-04-17 10:49 39.07960 117.86677 26526 ft 447 kts 90°
2026-04-17 10:50 39.07732 117.90684 26529 ft 447 kts 90°
2026-04-17 10:50 39.07504 117.94680 26525 ft 447 kts 90°
2026-04-17 10:50 39.07278 117.98609 26529 ft 446 kts 90°
2026-04-17 10:50 39.07046 118.02603 26526 ft 446 kts 90°
2026-04-17 10:51 39.06680 118.06572 26527 ft 449 kts 96°
2026-04-17 10:51 39.06076 118.10557 26548 ft 450 kts 98°
2026-04-17 10:51 39.05394 118.14477 26531 ft 450 kts 99°
2026-04-17 10:51 39.04707 118.18371 26530 ft 450 kts 99°
2026-04-17 10:52 39.04027 118.22336 26533 ft 450 kts 98°
2026-04-17 10:52 39.03375 118.26272 26535 ft 450 kts 98°
2026-04-17 10:52 39.02743 118.30185 26533 ft 450 kts 98°
2026-04-17 10:52 39.02116 118.34112 26535 ft 450 kts 97°
2026-04-17 10:53 39.01484 118.38075 26540 ft 450 kts 98°
2026-04-17 10:53 39.00854 118.42018 26537 ft 450 kts 98°
2026-04-17 10:53 39.00218 118.45976 26537 ft 451 kts 98°
2026-04-17 10:53 38.99585 118.49894 26537 ft 451 kts 98°
2026-04-17 10:54 38.98941 118.53878 26538 ft 451 kts 98°
2026-04-17 10:54 38.98304 118.57821 26536 ft 451 kts 98°
2026-04-17 10:54 38.97667 118.61764 26537 ft 451 kts 98°
2026-04-17 10:54 38.97031 118.65690 26537 ft 451 kts 98°
2026-04-17 10:55 38.96393 118.69617 26546 ft 451 kts 98°
2026-04-17 10:55 38.95745 118.73602 26543 ft 451 kts 98°
2026-04-17 10:55 38.95104 118.77529 26542 ft 452 kts 98°
2026-04-17 10:55 38.94464 118.81450 26545 ft 452 kts 98°
2026-04-17 10:56 38.93816 118.85402 26545 ft 452 kts 98°
2026-04-17 10:56 38.93167 118.89353 26543 ft 452 kts 98°
2026-04-17 10:56 38.92512 118.93341 26548 ft 452 kts 98°
2026-04-17 10:56 38.91863 118.97279 26549 ft 452 kts 98°
2026-04-17 10:57 38.91212 119.01215 26548 ft 451 kts 99°
2026-04-17 10:57 38.90557 119.05165 26550 ft 451 kts 99°
2026-04-17 10:57 38.89898 119.09106 26550 ft 451 kts 99°
2026-04-17 10:57 38.89237 119.13045 26551 ft 451 kts 99°
2026-04-17 10:58 38.88582 119.16937 26553 ft 451 kts 99°
2026-04-17 10:58 38.87919 119.20874 26553 ft 451 kts 99°
2026-04-17 10:58 38.87260 119.24783 26553 ft 451 kts 99°
2026-04-17 10:58 38.86594 119.28726 26558 ft 451 kts 99°
2026-04-17 10:59 38.85930 119.32645 26555 ft 451 kts 99°
2026-04-17 10:59 38.85259 119.36602 26559 ft 451 kts 99°
2026-04-17 10:59 38.84598 119.40493 26559 ft 450 kts 99°
2026-04-17 10:59 38.83932 119.44401 26559 ft 450 kts 99°
2026-04-17 11:00 38.83262 119.48326 26561 ft 450 kts 99°
2026-04-17 11:00 38.82588 119.52268 26564 ft 450 kts 99°
2026-04-17 11:00 38.81917 119.56179 26574 ft 451 kts 99°
2026-04-17 11:00 38.81245 119.60096 26571 ft 451 kts 99°
2026-04-17 11:01 38.80566 119.64039 26568 ft 451 kts 99°
2026-04-17 11:01 38.79886 119.67978 26565 ft 451 kts 99°
2026-04-17 11:01 38.79207 119.71909 26567 ft 451 kts 99°
2026-04-17 11:01 38.78529 119.75824 26567 ft 451 kts 99°
2026-04-17 11:02 38.77854 119.79713 26564 ft 451 kts 99°
2026-04-17 11:02 38.77166 119.83678 26573 ft 451 kts 99°
2026-04-17 11:02 38.76526 119.87591 26572 ft 450 kts 99°
2026-04-17 11:02 38.75903 119.91515 26571 ft 450 kts 99°
2026-04-17 11:03 38.75275 119.95457 26575 ft 450 kts 99°
2026-04-17 11:03 38.74628 119.99355 26578 ft 450 kts 99°
2026-04-17 11:03 38.73962 120.03250 26587 ft 450 kts 99°
2026-04-17 11:03 38.73287 120.07192 26588 ft 450 kts 99°
2026-04-17 11:04 38.72619 120.11105 26581 ft 450 kts 99°
2026-04-17 11:04 38.71799 120.14944 26561 ft 453 kts 112°
2026-04-17 11:04 38.70103 120.18344 26597 ft 454 kts 133°
2026-04-17 11:04 38.67713 120.20947 26587 ft 451 kts 149°
2026-04-17 11:05 38.64873 120.22647 26589 ft 446 kts 167°
2026-04-17 11:05 38.61942 120.23886 26567 ft 450 kts 155°
2026-04-17 11:05 38.59435 120.26326 26605 ft 453 kts 131°
2026-04-17 11:05 38.57784 120.29729 26594 ft 452 kts 109°
2026-04-17 11:06 38.57192 120.33590 26602 ft 445 kts 86°
2026-04-17 11:06 38.57547 120.37462 26619 ft 440 kts 76°
2026-04-17 11:06 38.57889 120.41410 26588 ft 446 kts 85°
2026-04-17 11:06 38.57737 120.45350 26593 ft 450 kts 95°
2026-04-17 11:07 38.57190 120.49312 26602 ft 452 kts 100°
2026-04-17 11:07 38.56505 120.53194 26600 ft 453 kts 101°
2026-04-17 11:07 38.55792 120.57134 26590 ft 454 kts 101°
2026-04-17 11:07 38.55119 120.61068 26593 ft 453 kts 100°
2026-04-17 11:08 38.54477 120.65000 26587 ft 453 kts 99°
2026-04-17 11:08 38.53846 120.68926 26589 ft 453 kts 99°
2026-04-17 11:08 38.53215 120.72862 26592 ft 452 kts 99°
2026-04-17 11:08 38.52579 120.76796 26594 ft 452 kts 99°
2026-04-17 11:09 38.51934 120.80756 26612 ft 451 kts 99°
2026-04-17 11:09 38.51289 120.84696 26605 ft 451 kts 99°
2026-04-17 11:09 38.50649 120.88585 26597 ft 450 kts 99°
2026-04-17 11:10 38.49360 120.96391 26597 ft 449 kts 100°
2026-04-17 11:10 38.48717 121.00271 26595 ft 449 kts 100°
2026-04-17 11:10 38.48071 121.04164 26600 ft 448 kts 100°
2026-04-17 11:10 38.47420 121.08081 26604 ft 448 kts 100°
2026-04-17 11:11 38.46772 121.11972 26605 ft 449 kts 100°
2026-04-17 11:11 38.46125 121.15868 26605 ft 449 kts 99°
2026-04-17 11:11 38.45515 121.19794 26599 ft 449 kts 99°
2026-04-17 11:11 38.44933 121.23658 26601 ft 450 kts 99°
2026-04-17 11:12 38.44330 121.27570 26605 ft 450 kts 99°
2026-04-17 11:12 38.43691 121.31490 26600 ft 451 kts 100°
2026-04-17 11:12 38.43036 121.35415 26601 ft 451 kts 100°
2026-04-17 11:12 38.42384 121.39336 26601 ft 451 kts 100°
2026-04-17 11:13 38.41736 121.43251 26603 ft 452 kts 100°
2026-04-17 11:13 38.41088 121.47170 26603 ft 452 kts 100°
2026-04-17 11:13 38.40438 121.51095 26602 ft 452 kts 100°
2026-04-17 11:13 38.39785 121.55017 26599 ft 452 kts 100°
2026-04-17 11:14 38.39132 121.58935 26605 ft 452 kts 100°
2026-04-17 11:14 38.38478 121.62851 26607 ft 452 kts 100°
2026-04-17 11:14 38.37822 121.66771 26606 ft 452 kts 100°
2026-04-17 11:14 38.37172 121.70649 26605 ft 452 kts 100°
2026-04-17 11:15 38.36514 121.74562 26606 ft 452 kts 100°
2026-04-17 11:15 38.35854 121.78481 26608 ft 452 kts 100°
2026-04-17 11:15 38.35193 121.82403 26604 ft 452 kts 101°
2026-04-17 11:15 38.34529 121.86331 26611 ft 453 kts 101°
2026-04-17 11:16 38.33864 121.90252 26616 ft 453 kts 101°
2026-04-17 11:16 38.33202 121.94157 26616 ft 453 kts 101°
2026-04-17 11:16 38.32536 121.98071 26620 ft 454 kts 101°
2026-04-17 11:16 38.31858 122.02044 26619 ft 454 kts 101°
2026-04-17 11:17 38.31194 122.05933 26620 ft 454 kts 101°
2026-04-17 11:17 38.30520 122.09869 26623 ft 454 kts 101°
2026-04-17 11:17 38.29844 122.13806 26621 ft 454 kts 101°
2026-04-17 11:17 38.29174 122.17707 26622 ft 454 kts 101°
2026-04-17 11:18 38.28496 122.21647 26620 ft 455 kts 101°
2026-04-17 11:18 38.27817 122.25584 26622 ft 454 kts 101°
2026-04-17 11:18 38.27210 122.29541 26631 ft 454 kts 99°
2026-04-17 11:18 38.26675 122.33458 26648 ft 454 kts 98°
2026-04-17 11:19 38.26128 122.37438 26627 ft 454 kts 99°
2026-04-17 11:19 38.25487 122.41330 26622 ft 454 kts 106°
2026-04-17 11:19 38.24293 122.45055 26635 ft 453 kts 118°
2026-04-17 11:19 38.22596 122.48438 26633 ft 452 kts 129°
2026-04-17 11:20 38.20478 122.51372 26628 ft 450 kts 137°
2026-04-17 11:20 38.18248 122.54157 26625 ft 450 kts 138°
2026-04-17 11:20 38.16011 122.56944 26626 ft 450 kts 137°
2026-04-17 11:20 38.13797 122.59746 26628 ft 451 kts 137°
2026-04-17 11:21 38.11608 122.62556 26631 ft 452 kts 137°
2026-04-17 11:21 38.09409 122.65391 26634 ft 452 kts 137°
2026-04-17 11:21 38.07204 122.68253 26636 ft 452 kts 136°
2026-04-17 11:21 38.05002 122.71116 26636 ft 453 kts 136°
2026-04-17 11:22 38.02794 122.73989 26635 ft 453 kts 136°
2026-04-17 11:22 38.00585 122.76861 26635 ft 453 kts 136°
2026-04-17 11:22 37.98399 122.79699 26635 ft 453 kts 136°
2026-04-17 11:22 37.96179 122.82577 26635 ft 453 kts 137°
2026-04-17 11:23 37.93998 122.85400 26636 ft 453 kts 137°
2026-04-17 11:23 37.91788 122.88258 26638 ft 453 kts 137°
2026-04-17 11:23 37.89575 122.91117 26639 ft 452 kts 137°
2026-04-17 11:23 37.87385 122.93945 26638 ft 452 kts 137°
2026-04-17 11:24 37.85179 122.96791 26629 ft 452 kts 137°
2026-04-17 11:24 37.82962 122.99648 26640 ft 452 kts 137°
2026-04-17 11:24 37.80758 123.02485 26642 ft 453 kts 137°
2026-04-17 11:24 37.78552 123.05322 26650 ft 454 kts 137°
2026-04-17 11:25 37.76357 123.08142 26644 ft 454 kts 137°
2026-04-17 11:25 37.74151 123.10975 26642 ft 454 kts 137°
2026-04-17 11:25 37.71926 123.13829 26648 ft 455 kts 137°
2026-04-17 11:25 37.69699 123.16684 26639 ft 455 kts 138°
2026-04-17 11:26 37.67484 123.19520 26648 ft 455 kts 138°
2026-04-17 11:26 37.65261 123.22366 26648 ft 455 kts 138°
2026-04-17 11:26 37.63032 123.25216 26641 ft 455 kts 138°
2026-04-17 11:26 37.60823 123.28039 26659 ft 455 kts 138°
2026-04-17 11:27 37.58589 123.30890 26650 ft 454 kts 138°
2026-04-17 11:27 37.56400 123.33737 26642 ft 455 kts 135°
2026-04-17 11:27 37.54406 123.36836 26656 ft 457 kts 130°
2026-04-17 11:27 37.52489 123.40074 26638 ft 457 kts 129°
2026-04-17 11:28 37.50627 123.43297 26641 ft 457 kts 129°
2026-04-17 11:28 37.48754 123.46535 26648 ft 457 kts 129°
2026-04-17 11:28 37.47497 123.48691 26657 ft 457 kts 129°
2026-04-17 11:28 37.45607 123.51904 26662 ft 457 kts 129°
2026-04-17 11:29 37.43704 123.55110 26662 ft 458 kts 130°
2026-04-17 11:29 37.41168 123.59357 26662 ft 458 kts 130°
2026-04-17 11:29 37.39891 123.61489 26661 ft 458 kts 130°
2026-04-17 11:29 37.37967 123.64697 26661 ft 458 kts 130°
2026-04-17 11:30 37.36043 123.67904 26656 ft 458 kts 130°
2026-04-17 11:30 37.34121 123.71105 26654 ft 458 kts 130°
2026-04-17 11:30 37.32200 123.74302 26658 ft 458 kts 130°
2026-04-17 11:30 37.30279 123.77497 26663 ft 458 kts 130°
2026-04-17 11:31 37.28356 123.80692 26667 ft 458 kts 130°
2026-04-17 11:31 37.26427 123.83894 26664 ft 459 kts 130°
2026-04-17 11:31 37.24503 123.87087 26662 ft 459 kts 130°
2026-04-17 11:31 37.22599 123.90243 26665 ft 459 kts 130°
2026-04-17 11:32 37.20666 123.93442 26668 ft 458 kts 130°
2026-04-17 11:32 37.18799 123.96693 26651 ft 461 kts 124°
2026-04-17 11:32 37.17472 124.00380 26672 ft 465 kts 108°
2026-04-17 11:32 37.16828 124.04362 26674 ft 466 kts 95°
2026-04-17 11:33 37.16853 124.08420 26680 ft 465 kts 85°
2026-04-17 11:33 37.17071 124.12418 26674 ft 466 kts 85°
2026-04-17 11:33 37.17290 124.16478 26666 ft 466 kts 85°
2026-04-17 11:33 37.17468 124.20542 26665 ft 467 kts 86°
2026-04-17 11:34 37.17616 124.24610 26658 ft 467 kts 87°
2026-04-17 11:34 37.17727 124.28689 26666 ft 468 kts 88°
2026-04-17 11:34 37.17811 124.32775 26674 ft 468 kts 88°
2026-04-17 11:34 37.17895 124.36855 26674 ft 468 kts 88°
2026-04-17 11:35 37.17985 124.40941 26674 ft 469 kts 88°
2026-04-17 11:35 37.18079 124.45030 26673 ft 469 kts 88°
2026-04-17 11:35 37.18171 124.49068 26682 ft 469 kts 88°
2026-04-17 11:35 37.18264 124.53152 26672 ft 468 kts 88°
2026-04-17 11:36 37.18356 124.57243 26675 ft 468 kts 88°
2026-04-17 11:36 37.18445 124.61331 26675 ft 467 kts 88°
2026-04-17 11:36 37.18533 124.65415 26675 ft 467 kts 88°
2026-04-17 11:36 37.18620 124.69486 26675 ft 466 kts 88°
2026-04-17 11:37 37.18704 124.73524 26410 ft 461 kts 88°
2026-04-17 11:37 37.18786 124.77513 26066 ft 454 kts 88°
2026-04-17 11:37 37.18866 124.81458 25601 ft 451 kts 88°
2026-04-17 11:37 37.18944 124.85374 25155 ft 447 kts 88°
2026-04-17 11:38 37.19022 124.89204 24711 ft 443 kts 88°
2026-04-17 11:38 37.19101 124.93057 24260 ft 440 kts 88°
2026-04-17 11:38 37.19178 124.96880 23809 ft 437 kts 88°
2026-04-17 11:38 37.19254 125.00692 23269 ft 434 kts 88°
2026-04-17 11:39 37.19327 125.04463 22798 ft 430 kts 88°
2026-04-17 11:39 37.19398 125.08145 22346 ft 425 kts 88°
2026-04-17 11:39 37.19467 125.11831 21866 ft 421 kts 88°
2026-04-17 11:39 37.19535 125.15483 21423 ft 416 kts 88°
2026-04-17 11:40 37.19601 125.19104 20959 ft 412 kts 87°
2026-04-17 11:40 37.19665 125.22673 20519 ft 408 kts 87°
2026-04-17 11:40 37.19727 125.26225 20075 ft 404 kts 88°
2026-04-17 11:40 37.19788 125.29736 19642 ft 401 kts 88°
2026-04-17 11:41 37.19848 125.33223 19214 ft 398 kts 88°
2026-04-17 11:41 37.19906 125.36675 18785 ft 395 kts 88°
2026-04-17 11:41 37.19963 125.40106 18350 ft 392 kts 88°
2026-04-17 11:41 37.20018 125.43473 17863 ft 389 kts 88°
2026-04-17 11:42 37.20071 125.46857 17394 ft 386 kts 88°
2026-04-17 11:42 37.19794 125.50179 16928 ft 383 kts 107°
2026-04-17 11:42 37.18895 125.53297 16554 ft 377 kts 111°
2026-04-17 11:42 37.17978 125.56373 16107 ft 375 kts 110°
2026-04-17 11:43 37.17087 125.59403 15683 ft 372 kts 110°
2026-04-17 11:43 37.16209 125.62435 15251 ft 369 kts 110°
2026-04-17 11:43 37.15343 125.65456 14837 ft 366 kts 109°
2026-04-17 11:43 37.14489 125.68451 14423 ft 363 kts 109°
2026-04-17 11:44 37.13645 125.71417 14013 ft 360 kts 109°
2026-04-17 11:44 37.12805 125.74362 13566 ft 358 kts 109°
2026-04-17 11:44 37.11969 125.77291 13099 ft 355 kts 109°
2026-04-17 11:44 37.11157 125.80203 12652 ft 352 kts 105°
2026-04-17 11:45 37.10729 125.83207 12238 ft 348 kts 95°
2026-04-17 11:45 37.10516 125.86174 11843 ft 344 kts 94°
2026-04-17 11:45 37.10310 125.89153 11421 ft 342 kts 94°
2026-04-17 11:45 37.10085 125.92106 11015 ft 339 kts 94°
2026-04-17 11:46 37.09841 125.95030 10612 ft 336 kts 94°
2026-04-17 11:46 37.09589 125.97906 10431 ft 326 kts 95°
2026-04-17 11:46 37.09342 126.00686 10277 ft 316 kts 95°
2026-04-17 11:46 37.09182 126.03386 10137 ft 305 kts 88°
2026-04-17 11:47 37.09224 126.06003 10006 ft 296 kts 86°
2026-04-17 11:47 37.09284 126.08564 9698 ft 293 kts 86°
2026-04-17 11:47 37.09329 126.11077 9400 ft 291 kts 87°
2026-04-17 11:47 37.09365 126.13602 9095 ft 289 kts 87°
2026-04-17 11:48 37.09394 126.16107 8794 ft 286 kts 87°
2026-04-17 11:48 37.09418 126.18602 8499 ft 284 kts 88°
2026-04-17 11:48 37.09440 126.21073 8204 ft 282 kts 88°
2026-04-17 11:48 37.09467 126.23524 7909 ft 280 kts 85°
2026-04-17 11:49 37.09961 126.25838 7581 ft 275 kts 59°
2026-04-17 11:49 37.11016 126.27795 7446 ft 267 kts 52°
2026-04-17 11:49 37.12093 126.29653 7317 ft 259 kts 52°
2026-04-17 11:49 37.13136 126.31462 7199 ft 252 kts 53°
2026-04-17 11:50 37.14175 126.33189 7080 ft 244 kts 44°
2026-04-17 11:50 37.15563 126.34220 6979 ft 232 kts 12°
2026-04-17 11:50 37.17144 126.34256 6780 ft 227 kts 347°
2026-04-17 11:50 37.18582 126.33510 6588 ft 225 kts 327°
2026-04-17 11:51 37.19937 126.32548 6331 ft 224 kts 345°
2026-04-17 11:51 37.21466 126.32701 5920 ft 226 kts 26°
2026-04-17 11:51 37.22651 126.33974 5613 ft 227 kts 54°
2026-04-17 11:51 37.23243 126.35807 5310 ft 230 kts 82°
2026-04-17 11:52 37.23087 126.37800 5031 ft 232 kts 107°
2026-04-17 11:52 37.22533 126.39706 4741 ft 233 kts 110°
2026-04-17 11:52 37.21955 126.41611 4442 ft 234 kts 110°
2026-04-17 11:52 37.21383 126.43504 4151 ft 235 kts 110°
2026-04-17 11:53 37.20809 126.45422 3874 ft 233 kts 110°
2026-04-17 11:53 37.20252 126.47294 3572 ft 224 kts 110°
2026-04-17 11:53 37.19720 126.49084 3290 ft 213 kts 111°
2026-04-17 11:53 37.19213 126.50791 3027 ft 205 kts 110°
2026-04-17 11:54 37.18722 126.52441 2782 ft 198 kts 110°
2026-04-17 11:54 37.18400 126.54090 2570 ft 191 kts 83°
2026-04-17 11:54 37.18879 126.55576 2564 ft 188 kts 56°
2026-04-17 11:54 37.19631 126.56935 2497 ft 191 kts 53°
2026-04-17 11:55 37.20405 126.58285 2427 ft 189 kts 53°
2026-04-17 11:55 37.21166 126.59617 2363 ft 187 kts 53°
2026-04-17 11:55 37.21937 126.60929 2320 ft 187 kts 46°
2026-04-17 11:55 37.23036 126.61702 2244 ft 183 kts
2026-04-17 11:56 37.24225 126.61340 2214 ft 178 kts 324°
2026-04-17 11:56 37.25281 126.60487 2182 ft 183 kts 327°
2026-04-17 11:56 37.26359 126.59623 2094 ft 182 kts 325°
2026-04-17 11:56 37.27374 126.58756 2004 ft 170 kts 324°
2026-04-17 11:57 37.28306 126.57934 1968 ft 160 kts 323°
2026-04-17 11:57 37.29196 126.57142 1971 ft 157 kts 323°
2026-04-17 11:57 37.30088 126.56346 1966 ft 157 kts 323°
2026-04-17 11:57 37.30977 126.55550 1993 ft 157 kts 323°
2026-04-17 11:58 37.31875 126.54746 2002 ft 159 kts 323°
2026-04-17 11:58 37.32780 126.53936 2004 ft 159 kts 323°
2026-04-17 11:58 37.33686 126.53126 2009 ft 161 kts 323°
2026-04-17 11:58 37.34601 126.52307 1999 ft 162 kts 323°
2026-04-17 11:59 37.35520 126.51485 2003 ft 162 kts 323°
2026-04-17 11:59 37.36425 126.50676 1885 ft 160 kts 322°
2026-04-17 11:59 37.37295 126.49898 1705 ft 148 kts 322°
2026-04-17 11:59 37.38110 126.49169 1493 ft 140 kts 322°
2026-04-17 12:00 37.38878 126.48483 1346 ft 129 kts 322°
2026-04-17 12:00 37.39592 126.47845 1144 ft 122 kts 321°
2026-04-17 12:00 37.40290 126.47219 988 ft 125 kts 322°
2026-04-17 12:00 37.41012 126.46573 816 ft 129 kts 322°
2026-04-17 12:01 37.41751 126.45913 642 ft 130 kts 322°
2026-04-17 12:01 37.42480 126.45261 459 ft 129 kts 323°
2026-04-17 12:01 37.43213 126.44612 286 ft 129 kts 322°
2026-04-17 12:01 37.43950 126.43950 122 ft 131 kts 321°
2026-04-17 12:02 37.44677 126.43301 32 ft 117 kts 325°
2026-04-17 12:02 37.45221 126.42816 31 ft 74 kts 325°
2026-04-17 12:02 37.45538 126.42538 31 ft 33 kts 328°
2026-04-17 12:02 37.45681 126.42460 31 ft 16 kts 344°
2026-04-17 12:03 37.45752 126.42440 31 ft 9 kts 350°
2026-04-17 12:03 37.45806 126.42466 32 ft 9 kts 49°
2026-04-17 12:03 37.45816 126.42535 32 ft 8 kts 102°
2026-04-17 12:03 37.45782 126.42583 32 ft 5 kts 144°
2026-04-17 12:04 37.45757 126.42606 32 ft 5 kts 144°
2026-04-17 12:04 37.45731 126.42629 32 ft 4 kts 144°
2026-04-17 12:04 37.45705 126.42653 31 ft 5 kts 144°
2026-04-17 12:04 37.45680 126.42676 30 ft 5 kts 144°
2026-04-17 12:05 37.45655 126.42698 29 ft 4 kts 144°
2026-04-17 12:05 37.45636 126.42715 31 ft 0 kts 144°
2026-04-17 12:05 37.45635 126.42715 31 ft 0 kts 144°
2026-04-17 12:06 37.45632 126.42718 32 ft 2 kts 144°
2026-04-17 12:07 37.45615 126.42734 32 ft 5 kts 144°
2026-04-17 12:07 37.45579 126.42766 32 ft 8 kts 145°
2026-04-17 12:07 37.45526 126.42812 32 ft 11 kts 145°
2026-04-17 12:07 37.45457 126.42873 32 ft 13 kts 145°
2026-04-17 12:08 37.45373 126.42945 32 ft 16 kts 145°
2026-04-17 12:08 37.45281 126.43030 32 ft 17 kts 144°
2026-04-17 12:08 37.45189 126.43112 32 ft 16 kts 145°
2026-04-17 12:08 37.45099 126.43191 32 ft 15 kts 145°
2026-04-17 12:09 37.45013 126.43266 30 ft 15 kts 145°
2026-04-17 12:09 37.44931 126.43338 32 ft 14 kts 143°
2026-04-17 12:09 37.44854 126.43410 32 ft 13 kts 143°
2026-04-17 12:09 37.44779 126.43476 32 ft 13 kts 146°
2026-04-17 12:10 37.44734 126.43564 32 ft 13 kts 83°
2026-04-17 12:10 37.44780 126.43656 32 ft 12 kts 53°
2026-04-17 12:10 37.44829 126.43742 32 ft 12 kts 55°
2026-04-17 12:10 37.44877 126.43827 32 ft 12 kts 55°
2026-04-17 12:11 37.44908 126.43917 32 ft 11 kts 92°
2026-04-17 12:11 37.44925 126.44011 32 ft 11 kts 54°
2026-04-17 12:11 37.44970 126.44090 32 ft 11 kts 54°
2026-04-17 12:12 37.45055 126.44241 32 ft 10 kts 56°
2026-04-17 12:12 37.45097 126.44315 32 ft 12 kts 54°
2026-04-17 12:12 37.45155 126.44417 32 ft 16 kts 54°
2026-04-17 12:12 37.45220 126.44535 30 ft 16 kts 60°
2026-04-17 12:13 37.45214 126.44667 32 ft 15 kts 121°
2026-04-17 12:13 37.45153 126.44774 32 ft 15 kts 126°
2026-04-17 12:13 37.45114 126.44826 32 ft 5 kts 172°
2026-04-17 12:13 37.45081 126.44803 32 ft 5 kts 216°
2026-04-17 12:14 37.45050 126.44775 32 ft 5 kts 216°
2026-04-17 12:14 37.45034 126.44761 32 ft 1 kts 216°
2026-04-17 12:14 37.45033 126.44760 32 ft 0 kts 216°